Wind_Speed
20 20 19 19 18 17 17 17 17 17 17 16 16 16 16 16 16 17 18 18 19 20 20 21 22 22 22 23 23 23 23 23 23 23 23 23 23 23 23 24 24 24 24
21 21 21 20 20 19 18 18 18 18 19 18 18 18 19 19 20 20 21 21 22 22 22 22 23 23 23 25 25 25 26 26 26 26 26 27 27 27 27 27 28 28 28
22 23 22 22 22 21 20 20 20 20 21 21 21 21 22 22 23 23 24 24 24 24 24 24 25 25 25 26 27 28 28 28 29 30 30 30 30 31 31 31 31 31 31
23 23 23 23 24 23 22 22 21 21 22 23 24 24 24 25 26 26 26 27 27 26 26 26 27 27 27 28 29 29 30 30 31 32 33 33 34 33 33 34 35 35 35
24 24 25 25 25 25 25 23 23 23 24 25 25 26 26 27 27 27 28 28 29 28 29 29 28 28 29 30 30 31 32 33 34 35 36 36 37 37 37 38 38 38 39
25 25 26 25 26 26 26 25 25 26 27 27 28 28 28 28 28 29 29 29 30 31 31 31 31 31 31 31 32 33 34 35 36 37 38 39 40 40 40 41 41 42 43
26 25 25 24 25 25 26 27 28 28 28 29 31 31 31 31 30 31 31 31 31 32 33 33 33 34 34 34 35 35 35 37 38 40 41 41 41 43 45 45 46 46 47
25 25 24 24 24 24 25 26 28 29 30 31 31 32 32 32 33 33 33 34 35 35 35 35 36 36 37 37 38 38 39 41 42 43 44 44 45 46 47 48 47 48 49
25 26 26 26 25 26 26 26 27 28 29 30 32 33 34 34 34 35 36 37 38 39 39 39 40 40 40 40 41 42 43 44 45 47 48 48 49 49 48 49 50 51 52
26 26 27 25 25 26 26 27 27 28 29 30 32 33 33 34 35 36 37 38 39 41 41 42 43 44 44 44 45 46 46 47 48 49 50 50 51 52 52 53 54 54 54
25 25 25 25 26 26 26 27 28 29 30 31 32 32 33 35 37 38 39 40 42 43 44 45 46 47 48 48 49 49 50 49 50 51 51 51 53 54 54 55 56 57 57
24 25 25 26 28 28 28 29 30 31 32 33 33 34 36 37 39 41 42 43 45 46 48 49 50 50 50 51 52 52 53 53 53 53 53 54 54 55 56 57 57 57 58
25 25 26 27 28 29 30 31 32 32 33 34 35 36 38 40 42 44 45 46 48 49 50 51 52 52 53 54 54 54 54 55 55 55 56 56 57 57 57 58 58 58 59
26 27 27 29 30 30 30 31 32 33 34 36 37 38 40 42 43 45 47 49 50 51 52 53 54 54 54 55 54 54 55 56 56 56 56 56 57 57 58 58 59 59 60
27 28 30 30 30 31 32 33 35 36 38 39 40 41 43 44 45 47 48 49 51 52 53 54 54 55 55 55 55 55 56 56 56 56 56 56 57 57 57 58 58 58 58
28 30 31 32 33 34 35 36 38 39 40 42 42 43 44 44 45 46 48 49 50 51 52 53 54 54 55 55 55 56 57 57 57 57 57 56 56 56 56 56 56 56 56
31 32 33 34 34 35 37 39 40 41 41 42 42 43 43 44 44 45 46 47 48 49 50 50 50 51 52 52 53 54 55 55 55 55 54 53 53 53 53 53 53 53 52
33 34 34 36 37 38 39 39 39 39 40 40 40 41 41 42 43 44 45 45 46 46 47 47 48 49 49 49 49 50 50 51 51 51 51 51 50 50 50 50 50 49 49
34 34 35 36 37 37 37 37 37 38 38 38 38 39 40 41 42 43 43 44 44 44 45 46 46 46 46 46 46 47 47 47 47 46 45 45 44 44 44 44 44 43 43
33 34 34 35 35 35 35 35 36 36 37 37 37 38 38 39 39 39 39 38 39 39 40 40 40 40 40 40 40 40 40 40 40 39 38 37 36 36 36 36 36 37 37
32 32 32 32 32 33 33 33 34 34 34 34 34 34 34 34 33 33 32 32 33 33 33 33 33 33 33 33 33 33 33 32 32 31 31 30 29 29 29 30 30 31 31
29 29 29 29 30 30 31 31 31 31 31 30 30 30 29 29 28 29 29 29 29 29 29 28 28 28 27 27 27 26 25 25 25 25 25 24 24 24 24 25 26 27 28
26 26 27 27 28 28 29 28 28 28 27 27 26 26 26 26 25 26 26 26 25 25 24 24 24 23 23 22 22 22 22 21 21 21 21 20 20 21 21 22 23 24 24
24 24 24 25 25 25 25 25 25 24 24 23 23 23 23 23 23 23 23 23 23 23 22 22 21 21 20 20 19 19 18 18 18 17 17 17 17 18 18 19 20 21 22
22 22 22 22 22 21 22 21 21 20 20 20 20 20 21 20 20 20 21 21 20 20 20 20 19 19 18 18 17 16 15 15 14 14 14 15 15 16 17 17 18 19 21
21 20 20 19 19 19 19 18 17 17 17 18 18 18 18 18 18 18 19 18 18 19 19 18 18 17 16 16 15 15 14 13 12 12 12 13 14 14 15 16 18 19 20
Wind_Direction
236 235 235 235 235 238 240 244 244 244 247 251 257 261 266 272 276 279 281 283 284 283 281 280 280 279 279 276 276 276 275 275 274 274 273 272 272 272 271 271 271 270 269
236 235 235 235 238 240 242 245 246 249 253 257 261 264 268 272 275 279 280 283 284 283 281 281 280 279 280 277 274 273 273 273 272 271 271 271 271 270 271 271 270 269 268
238 238 237 238 240 241 243 246 248 254 258 261 265 268 271 273 276 279 280 282 284 281 280 280 280 278 277 276 274 273 272 272 272 271 271 271 271 271 270 270 270 269 269
240 240 239 241 242 242 244 247 251 257 261 265 267 270 272 274 276 278 279 281 281 280 279 280 279 276 274 275 274 273 272 272 273 272 271 271 271 271 271 272 271 269 269
239 239 241 243 244 245 247 249 254 259 264 267 269 271 274 274 275 276 276 278 278 277 278 279 278 276 275 275 274 273 272 272 273 273 273 272 272 271 272 272 271 270 269
240 242 243 246 247 248 249 251 256 259 264 267 270 272 273 273 274 274 274 276 277 276 276 277 277 277 276 275 274 272 272 273 273 273 273 273 272 270 272 272 271 271 270
240 245 244 247 249 252 254 257 259 261 264 267 268 270 271 272 273 273 273 275 277 276 275 276 277 277 276 275 274 272 271 271 272 272 273 272 271 271 272 271 271 271 271
241 243 248 252 255 258 261 263 266 266 269 271 271 270 271 273 272 272 273 274 275 275 275 276 277 276 276 276 274 273 272 271 271 271 272 272 272 272 273 272 272 272 271
245 248 254 255 259 263 268 271 272 271 273 274 273 273 272 273 272 272 274 274 275 276 276 276 277 277 277 277 276 275 274 273 272 271 271 271 271 271 270 270 270 271 270
249 253 255 258 263 265 270 273 274 273 274 275 274 274 274 274 272 272 272 274 275 276 277 277 278 279 279 278 277 276 275 275 274 272 272 271 271 270 270 270 271 271 271
255 258 259 264 268 271 273 274 275 273 275 276 276 276 276 275 274 274 274 275 276 277 277 277 278 279 279 278 278 277 276 275 274 273 272 272 272 271 270 271 271 271 271
261 264 266 268 272 274 276 276 277 276 277 277 277 277 277 277 276 276 276 277 277 277 277 278 279 279 279 279 279 278 276 275 274 273 273 273 272 271 272 271 271 271 272
269 271 273 273 273 274 275 276 277 278 279 278 278 279 279 279 278 277 277 278 278 278 278 278 279 279 279 279 279 278 276 275 275 274 274 274 272 272 273 272 272 273 273
271 272 273 274 275 277 278 278 279 280 280 280 281 281 281 281 281 279 278 279 279 279 279 279 278 278 278 279 279 277 275 275 275 275 275 274 273 273 273 272 273 274 273
274 275 275 275 277 279 281 281 281 282 282 282 282 282 282 282 281 281 281 280 280 280 280 280 280 279 279 279 278 276 276 276 275 275 274 274 272 272 273 273 273 274 275
276 278 277 277 278 280 281 283 283 284 285 285 285 284 284 283 283 282 283 282 282 282 282 282 281 281 280 279 278 277 277 277 277 276 276 275 274 273 273 273 274 275 276
277 279 279 279 280 282 284 285 286 286 286 286 286 285 285 285 285 284 284 284 284 284 284 283 283 282 282 281 280 279 279 278 278 277 277 276 276 277 277 277 277 277 277
278 279 280 281 284 285 286 287 287 287 287 287 287 287 287 287 287 287 287 286 286 286 285 285 284 284 283 283 282 281 280 279 279 279 278 277 277 278 278 278 279 280 281
279 280 282 284 285 286 286 287 287 288 289 289 289 289 289 290 290 290 289 289 288 288 288 287 287 286 285 284 283 282 281 281 281 282 282 282 281 280 280 281 281 283 284
281 282 282 284 285 286 287 287 288 289 290 290 290 291 292 292 293 293 293 293 293 293 293 292 291 290 290 289 288 287 286 285 285 286 285 285 285 284 284 285 285 285 285
282 281 282 284 286 287 287 288 289 290 291 291 293 294 294 295 296 297 298 298 299 299 298 298 297 297 296 296 294 293 293 292 291 291 291 291 290 290 288 288 289 289 290
283 284 284 285 286 287 288 289 290 292 293 294 295 296 297 299 300 300 301 302 303 304 304 303 304 305 304 303 302 302 301 299 298 297 296 295 296 296 295 294 294 295 296
285 285 286 286 287 288 290 292 293 295 296 297 298 299 301 302 304 305 306 307 309 311 312 311 311 311 312 311 310 308 306 304 303 303 301 301 301 301 301 302 302 303 303
286 287 287 288 290 292 294 297 297 298 298 300 302 304 305 306 308 310 311 312 313 314 316 316 316 316 316 316 315 313 312 311 310 308 306 307 307 308 309 309 309 310 310
289 289 290 291 293 295 297 299 300 301 303 305 307 308 309 310 312 314 316 316 318 320 320 319 320 320 322 323 323 322 321 320 318 317 316 317 317 317 318 317 317 318 318
290 289 290 291 293 295 298 301 302 304 306 308 311 312 313 314 316 319 322 323 325 327 327 326 325 325 327 329 330 330 330 330 330 329 328 327 326 326 326 325 325 327 328
Height
5863 5865 5866 5867 5868 5869 5870 5870 5871 5872 5873 5874 5874 5874 5874 5874 5873 5872 5872 5871 5870 5869 5869 5868 5867 5867 5866 5866 5866 5865 5865 5865 5865 5864 5864 5864 5864 5863 5863 5863 5863 5862 5863
5859 5861 5862 5863 5864 5865 5866 5867 5867 5868 5869 5869 5870 5870 5870 5869 5868 5868 5867 5866 5865 5864 5863 5863 5862 5862 5861 5860 5860 5859 5859 5859 5858 5858 5858 5858 5857 5857 5857 5857 5857 5856 5856
5855 5857 5858 5859 5860 5861 5862 5862 5863 5864 5864 5864 5865 5865 5864 5864 5863 5862 5861 5860 5859 5858 5858 5857 5856 5856 5855 5855 5854 5853 5853 5852 5852 5852 5851 5851 5851 5850 5850 5850 5849 5849 5849
5851 5852 5853 5854 5855 5856 5857 5858 5858 5859 5859 5859 5859 5859 5859 5858 5857 5856 5855 5854 5854 5853 5852 5851 5850 5849 5849 5848 5847 5847 5846 5845 5845 5844 5844 5843 5843 5843 5842 5842 5841 5841 5841
5846 5847 5848 5849 5850 5851 5851 5852 5853 5853 5853 5853 5853 5853 5853 5852 5851 5850 5849 5848 5847 5846 5845 5844 5843 5843 5842 5841 5841 5840 5839 5838 5837 5836 5836 5835 5835 5834 5833 5833 5832 5832 5832
5840 5842 5843 5843 5844 5845 5846 5846 5847 5847 5847 5847 5847 5846 5846 5846 5845 5844 5843 5842 5841 5840 5839 5838 5837 5836 5835 5834 5833 5832 5831 5830 5828 5827 5826 5826 5825 5824 5824 5823 5823 5822 5822
5835 5836 5837 5838 5839 5839 5840 5840 5841 5841 5841 5840 5840 5839 5839 5838 5838 5837 5836 5835 5834 5832 5831 5830 5829 5829 5827 5826 5825 5824 5823 5821 5820 5819 5817 5816 5815 5814 5813 5813 5812 5811 5811
5829 5831 5831 5832 5833 5834 5834 5834 5835 5834 5834 5834 5833 5832 5832 5832 5830 5829 5828 5827 5826 5825 5823 5822 5821 5820 5819 5818 5816 5815 5814 5812 5811 5809 5807 5806 5804 5803 5802 5801 5800 5799 5798
5824 5825 5825 5826 5827 5828 5828 5828 5827 5827 5827 5826 5826 5825 5824 5823 5822 5821 5820 5819 5817 5816 5815 5814 5812 5810 5809 5807 5806 5804 5803 5802 5800 5798 5797 5795 5793 5792 5790 5789 5787 5786 5785
5817 5818 5819 5820 5821 5821 5821 5821 5820 5820 5819 5819 5818 5817 5816 5814 5814 5813 5812 5810 5808 5807 5805 5804 5802 5800 5798 5796 5795 5793 5791 5789 5787 5786 5784 5782 5781 5779 5777 5776 5774 5773 5772
5811 5812 5812 5813 5814 5814 5814 5813 5813 5812 5812 5811 5810 5809 5807 5806 5805 5803 5802 5801 5799 5797 5795 5793 5791 5789 5787 5785 5782 5780 5778 5776 5774 5772 5770 5768 5766 5764 5763 5761 5760 5758 5756
5804 5805 5805 5806 5806 5806 5806 5806 5806 5805 5804 5803 5802 5800 5799 5797 5795 5793 5791 5790 5788 5786 5784 5781 5779 5777 5774 5772 5769 5767 5765 5763 5761 5759 5756 5754 5752 5750 5748 5746 5744 5742 5740
5797 5798 5799 5799 5799 5799 5798 5798 5797 5797 5796 5794 5793 5791 5789 5787 5785 5783 5781 5778 5776 5774 5771 5769 5766 5764 5761 5758 5756 5753 5751 5748 5746 5744 5742 5740 5737 5735 5733 5730 5728 5726 5725
5791 5791 5792 5792 5791 5791 5790 5790 5789 5788 5786 5785 5783 5781 5779 5776 5774 5772 5769 5767 5764 5761 5758 5755 5752 5749 5747 5744 5741 5739 5736 5734 5731 5728 5726 5724 5722 5719 5717 5714 5712 5710 5708
5784 5784 5783 5783 5783 5782 5782 5781 5780 5778 5776 5774 5772 5770 5768 5765 5762 5759 5756 5754 5751 5747 5744 5741 5738 5734 5731 5729 5726 5723 5721 5718 5715 5713 5710 5708 5706 5703 5700 5698 5695 5693 5690
5776 5776 5775 5775 5774 5773 5772 5771 5769 5768 5766 5764 5761 5759 5756 5753 5750 5747 5743 5740 5737 5733 5730 5726 5723 5719 5716 5713 5710 5707 5704 5702 5699 5696 5694 5691 5689 5686 5684 5681 5679 5676 5674
5767 5767 5767 5766 5765 5763 5762 5760 5758 5756 5754 5752 5749 5747 5744 5741 5737 5734 5730 5727 5723 5720 5716 5712 5709 5705 5701 5698 5695 5692 5689 5686 5683 5680 5678 5675 5673 5670 5668 5665 5663 5661 5658
5759 5758 5758 5756 5755 5753 5752 5750 5747 5745 5743 5740 5738 5735 5732 5728 5725 5721 5718 5714 5710 5706 5703 5699 5695 5691 5687 5684 5680 5677 5674 5670 5667 5665 5662 5660 5658 5655 5653 5651 5649 5646 5644
5750 5749 5748 5747 5745 5743 5741 5739 5737 5735 5732 5729 5726 5723 5720 5716 5713 5709 5705 5701 5697 5693 5689 5685 5681 5677 5673 5669 5666 5662 5659 5656 5653 5651 5648 5645 5643 5641 5639 5638 5636 5634 5632
5741 5740 5739 5737 5735 5733 5731 5730 5727 5725 5722 5719 5716 5713 5709 5706 5702 5698 5694 5690 5686 5681 5677 5673 5668 5664 5660 5656 5653 5649 5646 5644 5641 5638 5636 5633 5631 5629 5628 5627 5625 5623 5620
5731 5730 5729 5728 5726 5724 5722 5720 5718 5715 5713 5710 5706 5703 5699 5696 5692 5688 5684 5680 5676 5671 5667 5662 5658 5654 5650 5646 5643 5639 5636 5633 5631 5628 5626 5624 5622 5620 5618 5617 5615 5612 5610
5722 5722 5720 5719 5717 5715 5713 5711 5709 5706 5704 5701 5697 5694 5690 5687 5683 5679 5675 5671 5667 5663 5658 5654 5650 5646 5642 5638 5635 5632 5629 5626 5624 5622 5619 5617 5615 5613 5611 5609 5607 5604 5602
5715 5714 5712 5711 5709 5707 5705 5703 5701 5698 5695 5692 5689 5686 5682 5679 5676 5672 5668 5664 5660 5656 5652 5648 5644 5640 5636 5633 5630 5626 5623 5621 5618 5616 5613 5611 5609 5607 5605 5603 5600 5597 5594
5708 5706 5705 5703 5702 5700 5698 5696 5693 5691 5688 5685 5682 5679 5676 5673 5669 5666 5662 5658 5655 5651 5647 5643 5639 5636 5632 5628 5625 5622 5619 5616 5614 5612 5609 5607 5605 5603 5600 5597 5595 5592 5589
5700 5699 5698 5696 5695 5693 5691 5689 5687 5685 5682 5679 5676 5673 5670 5667 5664 5661 5657 5653 5650 5646 5642 5639 5635 5632 5628 5625 5622 5619 5616 5613 5611 5609 5606 5604 5602 5599 5597 5594 5591 5588 5584
5694 5693 5692 5691 5689 5687 5686 5684 5681 5679 5677 5674 5671 5668 5666 5663 5660 5656 5653 5650 5646 5642 5639 5635 5632 5628 5625 5622 5619 5616 5614 5611 5609 5607 5604 5602 5600 5597 5594 5591 5588 5584 5580